Aérodrome :
LOGIN :

S'inscrire | Disclaimer

   EN    FR    IT 

 










Légende :    VFR   VFR Marginal   IFR   IFR Intensif   IFR Très Intensif
Visi : 
Plafond : 
>= 8 km
>= 3000ft
5 à 8 km
1000 à 3000 ft
1500m à 5 km
500 à 1000 ft
800 à 1500m
200 à 500 ft
< 800m
< 200 ft
Symboles :   Orages  Brouillard  Fortes neiges  Fortes précipitations  Vent > 20 kt
SIGMETs :   Divers  Orages  Givrage  Turbulence  Onde Orograph.  Cendres Volcan.







- Altitude de l'aérodrome : 300 ft
- Code IATA : MLA


LMML - Malta Luqa

DERNIER METAR :
  • 140745Z 28006KT 250V310 9999 FEW028 15/10 Q1024 NOSIG RMK SMOKE TO S

METARs EXPIRÉS :
  • 140715Z 28005KT 9999 FEW030 13/09 Q1024 NOSIG
  • 140645Z 32004KT 9999 FEW030 13/09 Q1023 NOSIG
  • 140615Z 30005KT 9999 FEW030 13/09 Q1023 NOSIG
  • 140545Z 29003KT 9999 FEW030 13/09 Q1023 NOSIG
  • 140515Z 30005KT 9999 SCT028 13/09 Q1023 NOSIG

TAF TAF LMML
Valide du 14 à 06h jusqu'au 15 à 06h UTC


140500Z 1406/1506 31012KT 9999 FEW020
BECMG 1500/1503 23015KT
Pas de NOTAMs connus pour ce terrain.



MET'MAP, la Météo Aéronautique d'un coup d'oeil ! - Copyright ORBIFLY Décembre 2007 - Disclaimer

ORBIFLY MET'MAP TEAM :

Programmation & Développement : Alexandra Zaïnal
Conception & Développement : Baudouin d'Aumeries
Co-Programmation & Développement : Marc-Olivier Méhu
Soutien technique & logistique : Manuel Goepfert

Contact : metmap@orbifly.com




SOURCES & CREDITS :

   NOAA